User: anonymous   Login
Location: Bittkow
(50.3000°N, 19.0000°E)
Time: 01:42:09
(UTC+00:00)
Language:

Cosmos 1943 Rocket - Orbit

View from above orbital plane
View from above orbital plane
View from above satellite
View from above satellite

Ground track
Ground track

The orbit data is extracted from the following two-line orbital elements,

1 19120U 88039B   20328.33668629 -.00000092  00000-0 -21109-4 0  9999
2 19120  71.0144 192.7975 0019896  60.6330 299.6779 14.19209050684461
Epoch (UTC): 23 November 2020 08:04:49
Eccentricity: 0.0019896
inclination: 71.0144°
perigee height: 813 km
apogee height: 842 km
right ascension of ascending node: 192.7975°
argument of perigee: 60.6330°
revolutions per day: 14.19209050
mean anomaly at epoch: 299.6779°
orbit number at epoch: 68446

The dashed part of the orbit path shows where the satellite is in the earth's shadow,  

DLR